This demonstration page uses our WeatherBlox Daily Observations layout. Learn more.

Left ArrowRight Arrow

40.92945, -100.16068

Hourly Observations for December 30, 2020

Temp ( °F °C ) Dew Point ( °F °C ) Humidity (%) Winds ( mph kmh ) Pressure ( in mb ) Visibility ( mi km ) Precip ( " mm )
12:15 am 00:15 Clear 26 -3.5 19 -7 77 77 NW 13 20 30.18 1022 10 16 N/A
12:35 am 00:35 Clear 23 -5.2 18 -8 81 81 NW 13 20 30.21 1023 10 16 N/A
12:55 am 00:55 Clear 22 -5.6 17 -8.5 80 80 NW 12 19 30.21 1023 10 16 N/A
1:15 am 01:15 Clear 21 -6.2 16 -8.9 81 81 WNW 9 15 30.22 1023 10 16 N/A
1:35 am 01:35 Clear 18 -8 14 -10.1 85 85 WNW 13 20 30.25 1024 10 16 N/A
1:55 am 01:55 Clear 17 -8.1 13 -10.3 84 84 WNW 12 19 30.25 1024 10 16 N/A
2:15 am 02:15 Clear 17 -8.6 13 -10.7 85 85 W 13 20 30.27 1025 10 16 N/A
2:35 am 02:35 Clear 15 -9.4 11 -11.5 85 85 WNW 10 17 30.26 1025 10 16 N/A
2:55 am 02:55 Clear 15 -9.5 11 -11.6 85 85 WNW 10 17 30.28 1025 10 16 N/A
3:15 am 03:15 Clear 13 -10.5 9 -12.6 85 85 W 12 19 30.29 1026 10 16 N/A
3:35 am 03:35 Clear 14 -10.2 10 -12.4 84 84 W 8 13 30.28 1025 10 16 N/A
3:55 am 03:55 Clear 11 -11.4 8 -13.3 86 86 WNW 12 19 30.29 1026 10 16 N/A
4:15 am 04:15 Clear 14 -10.1 10 -12 86 86 WNW 15 24 30.26 1025 10 16 N/A
4:35 am 04:35 Clear 16 -9 12 -11.2 84 84 WNW 16 26 30.25 1024 10 16 N/A
4:55 am 04:55 Clear 16 -9.1 11 -11.6 82 82 WNW 16 26 30.24 1024 10 16 N/A
5:15 am 05:15 Clear 13 -10.7 8 -13.1 83 83 WNW 13 20 30.26 1025 10 16 N/A
5:35 am 05:35 Clear 11 -11.6 7 -13.9 83 83 NW 14 22 30.28 1025 10 16 N/A
5:55 am 05:55 Clear 11 -11.7 7 -14 83 83 WNW 13 20 30.28 1025 10 16 N/A
6:15 am 06:15 Clear 10 -12.4 6 -14.6 84 84 W 15 24 30.31 1026 10 16 N/A
6:35 am 06:35 Clear 10 -12.1 6 -14.5 83 83 W 14 22 30.31 1027 10 16 N/A
6:55 am 06:55 Clear 9 -13 4 -15.3 83 83 W 13 20 30.33 1027 10 16 N/A
7:15 am 07:15 Clear 10 -12 6 -14.4 83 83 WNW 10 17 30.33 1027 10 16 N/A
7:35 am 07:35 Clear 13 -10.6 8 -13.5 79 79 NW 12 19 30.32 1027 10 16 N/A
7:55 am 07:55 Clear 12 -11 7 -13.7 81 81 NW 14 22 30.32 1027 10 16 N/A
8:15 am 08:15 Sunny 13 -10.8 7 -13.8 79 79 WNW 8 13 30.33 1027 10 16 N/A
8:35 am 08:35 Sunny 10 -12.2 5 -14.8 81 81 W 3 6 30.36 1028 10 16 N/A
8:55 am 08:55 Sunny 11 -11.7 6 -14.5 80 80 WNW 9 15 30.36 1028 10 16 N/A
9:15 am 09:15 Sunny 11 -11.5 6 -14.2 81 81 WNW 10 17 30.36 1028 10 16 N/A
9:35 am 09:35 Sunny 12 -11 7 -14 79 79 WNW 13 20 30.36 1028 10 16 N/A
9:55 am 09:55 Sunny 13 -10.4 8 -13.5 78 78 WNW 13 20 30.37 1028 10 16 N/A
10:15 am 10:15 Sunny 15 -9.3 9 -12.7 77 77 WNW 13 20 30.36 1028 10 16 N/A
10:35 am 10:35 Sunny 18 -8 11 -11.9 74 74 WNW 13 20 30.36 1028 10 16 N/A
10:55 am 10:55 Sunny 19 -7.1 11 -11.5 71 71 WNW 13 20 30.35 1028 10 16 N/A
11:15 am 11:15 Sunny 20 -6.7 12 -11 72 72 WNW 12 19 30.35 1028 10 16 N/A
11:35 am 11:35 Sunny 22 -5.7 14 -10.1 71 71 W 12 19 30.34 1027 10 16 N/A
11:55 am 11:55 Sunny 23 -5 14 -10 68 68 W 12 19 30.33 1027 10 16 N/A
12:15 pm 12:15 Sunny 24 -4.5 15 -9.2 70 70 W 8 13 30.31 1027 10 16 N/A
12:35 pm 12:35 Sunny 26 -3.5 16 -9.1 66 66 W 9 15 30.29 1026 10 16 N/A
12:55 pm 12:55 Sunny 27 -2.8 16 -8.7 64 64 W 10 17 30.28 1025 10 16 N/A
1:15 pm 13:15 Sunny 28 -2.3 17 -8.2 64 64 W 8 13 30.26 1025 10 16 N/A
1:35 pm 13:35 Sunny 29 -1.8 17 -8.2 62 62 N N/A 30.25 1024 10 16 N/A
1:55 pm 13:55 Sunny 30 -1.3 17 -8.1 60 60 N N/A 30.24 1024 10 16 N/A
2:15 pm 14:15 Sunny 31 -0.5 20 -6.5 64 64 WSW 6 9 30.23 1024 10 16 N/A
2:35 pm 14:35 Sunny 31 -0.5 20 -6.8 63 63 WSW 8 13 30.22 1023 10 16 N/A
2:55 pm 14:55 Sunny 31 -0.7 20 -6.5 65 65 WSW 7 11 30.22 1024 10 16 N/A
3:15 pm 15:15 Sunny 31 -0.7 20 -6.5 65 65 W 8 13 30.22 1024 10 16 N/A
3:35 pm 15:35 Sunny 30 -0.9 21 -6.3 67 67 WSW 6 9 30.22 1023 10 16 N/A
3:55 pm 15:55 Sunny 30 -1.2 20 -6.5 68 68 WSW 7 11 30.22 1023 10 16 N/A
4:15 pm 16:15 Sunny 29 -1.6 20 -6.6 69 69 WSW 5 7 30.21 1023 10 16 N/A
4:35 pm 16:35 Sunny 29 -1.7 19 -7.2 66 66 SW 7 11 30.22 1024 10 16 N/A
4:55 pm 16:55 Sunny 28 -2.3 19 -7.5 68 68 SSW 5 7 30.23 1024 10 16 N/A
5:15 pm 17:15 Sunny 26 -3.4 18 -7.7 72 72 SSW 6 9 30.23 1024 10 16 N/A
5:35 pm 17:35 Clear 25 -4 18 -7.6 76 76 N N/A 30.24 1024 10 16 N/A
5:55 pm 17:55 Clear 22 -5.4 17 -8.2 81 81 WSW 5 7 30.26 1025 10 16 N/A
6:15 pm 18:15 Clear 19 -7.1 15 -9.6 83 83 SW 6 9 30.28 1025 10 16 N/A
6:35 pm 18:35 Clear 19 -7.1 15 -9.6 83 83 WSW 6 9 30.28 1025 10 16 N/A
6:55 pm 18:55 Clear 15 -9.4 11 -11.5 85 85 WSW 6 9 30.30 1026 10 16 N/A
7:15 pm 19:15 Clear 18 -7.7 14 -10 84 84 WSW 5 7 30.29 1026 10 16 N/A
7:35 pm 19:35 Clear 19 -7.2 15 -9.3 85 85 SW 6 9 30.27 1025 10 16 N/A
7:55 pm 19:55 Clear 15 -9.4 12 -11.1 88 88 SSW 6 9 30.28 1026 10 16 N/A
8:15 pm 20:15 Clear 15 -9.3 13 -10.6 90 90 N N/A 30.27 1025 10 16 N/A
8:35 pm 20:35 Clear 14 -9.9 11 -11.4 89 89 N N/A 30.28 1025 10 16 N/A
8:55 pm 20:55 Clear 11 -11.6 9 -12.6 92 92 N N/A 30.29 1026 10 16 N/A
9:15 pm 21:15 Clear 13 -10.4 11 -11.4 92 92 N N/A 30.28 1025 10 16 N/A
9:35 pm 21:35 Clear 15 -9.7 12 -10.9 91 91 N N/A 30.26 1025 7 11 N/A
9:55 pm 21:55 Clear with Mist and Fog 11 -11.5 9 -12.9 89 89 N N/A 30.28 1025 5 8 N/A
10:15 pm 22:15 Clear with Mist and Fog 10 -12.2 7 -13.7 89 89 S 3 6 30.29 1026 5 8 N/A
10:35 pm 22:35 Mostly Cloudy with Mist and Fog 9 -12.7 6 -14.2 89 89 N N/A 30.31 1026 2 2 N/A
10:55 pm 22:55 Mostly Cloudy with Mist and Fog 6 -14.6 2 -16.4 86 86 N N/A 30.32 1027 1 2 N/A
11:15 pm 23:15 Mostly Cloudy with Freezing Fog 4 -15.4 1 -17.5 84 84 N N/A 30.33 1027 1 1 N/A
11:35 pm 23:35 Clear 5 -15 1 -17.1 84 84 E 3 6 30.33 1027 10 16 N/A
11:55 pm 23:55 Clear 5 -15 1 -17 85 85 N N/A 30.33 1027 10 16 N/A

Powered by AerisWeather